Regional Weather Roundup
Issued by NWS

Home | Current Version | Previous Version | Text Only | Print | Product List | Glossary On
Versions: 1 2 3 4 5 6 7 8 9 10 11 12 13 14 15 16 17 18 19 20 21 22 23 24 25 26 27 28
000
ASUS44 KLIX 301511
RWRLA
LOUISIANA WEATHER ROUNDUP
NATIONAL WEATHER SERVICE NEW ORLEANS LA
1000 AM CDT MON MAY 30 2016

NOTE: "FAIR" INDICATES FEW OR NO CLOUDS BELOW 12,000 FEET WITH NO
      SIGNIFICANT WEATHER AND/OR OBSTRUCTIONS TO VISIBILITY.
      SKY/WX - SKY CONDITION AND SIGNIFICANT WEATHER.
      TMP - AIR TEMPERATURE.    DP   - DEWPOINT TEMPERATURE.
      RH  - RELATIVE HUMIDITY.  PRES - PRESSURE.
      HX  - HEAT INDEX.         WCI  - WIND CHILL INDEX.

*  THESE STATIONS ARE NOT NWS OR FAA STATIONS AND ARE NOT UNDER
   NWS QUALITY CONTROL.

LAZ040-048-061>063-065-066-069-301600-
SOUTHEAST LOUISIANA

CITY           SKY/WX    TMP DP  RH WIND       PRES   REMARKS
N.O. AUDUBON     N/A     88  74  63 MISG        N/A  HX  96
N.O. INTL ARPT PTSUNNY   85  71  63 VRB5      30.04S
N.O. LAKEFRONT SUNNY     82  73  74 NW6       30.05S
N.O. DOWNTOWN* FAIR      84  72  67 VRB5      30.05S
RESERVE*       FAIR      87  71  58 CALM      30.04F
SLIDELL        SUNNY     84  73  69 VRB5      30.03F
BATON ROUGE    SUNNY     86  70  58 VRB3      30.04S
BOOTHVILLE     SUNNY     82  71  69 N6        30.05S
BELLE CHASSE   SUNNY     84  72  67 NW3       30.04S
BOGALUSA*      FAIR      85  70  59 CALM      30.05F
GALLIANO*      MOSUNNY   83  72  70 CALM      30.05S
NEW ROADS*     FAIR      83  72  69 N3        30.05S
GONZALES*      FAIR      83  71  66 CALM      30.04S
HAMMOND*       SUNNY     86  68  54 CALM      30.03F
HOUMA*         MOSUNNY   81  73  78 N3        30.04F
PORT FOURCHON* MOSUNNY   82  72  69 CALM      30.05S

$$

LAZ041-044-053-054-301600-
SOUTHWEST LOUISIANA

CITY           SKY/WX    TMP DP  RH WIND       PRES   REMARKS
LAKE CHARLES   MOSUNNY   82  72  71 N7        30.06R
LAFAYETTE      MOSUNNY   82  74  76 CALM      30.05S
PATTERSON      PTSUNNY   83  72  69 NE3       30.05F
SALT POINT       N/A     83  74  74 CALM      30.03S
NEW IBERIA     MOSUNNY   84  73  69 VRB5      30.05S
CHENAULT AIRPK PTSUNNY  N/A N/A N/A CALM        N/A

$$

LAZ027-028-301600-
CENTRAL LOUISIANA

CITY           SKY/WX    TMP DP  RH WIND       PRES   REMARKS
FORT POLK      NOT AVBL
ALEXANDRIA INT SUNNY     82  72  71 CALM      30.04S
ALEXANDRIA     SUNNY     87  72  60 VRB3      30.05F

$$

LAZ001-002-301600-
NORTHWEST LOUISIANA

CITY           SKY/WX    TMP DP  RH WIND       PRES   REMARKS
SHREVEPORT     CLOUDY    81  70  69 W7        30.04F
BARKSDALE AFB  PTSUNNY   82  69  63 W3        30.04F
DTN SHREVEPORT CLOUDY    81  70  69 W7        30.04F

$$

LAZ014-016-301600-
NORTHEAST LOUISIANA

CITY           SKY/WX    TMP DP  RH WIND       PRES   REMARKS
MONROE         SUNNY     80  67  64 VRB5      30.06F
TALLULAH       SUNNY     80  67  64 CALM      30.06F

$$





USA.gov is the U.S. government's official web portal to all federal, state and local government web resources and services.